Bloomington, IN

4:56 AM EST on December 08, 2016 (GMT -0500)
Monroe County

Weather History for KBMG - February, 2013

Change the Weather History Date:

Monday, February 25, 2013

  Actual Average Record
Temperature  
Mean Temperature 36 °F 36 °F  
Max Temperature 47 °F 46 °F 61 °F (2001)
Min Temperature 24 °F 26 °F -2 °F (2003)
Degree Days  
Heating Degree Days 29 29  
Month to date heating degree days 828 808  
Since 1 July heating degree days 3872 3983  
Cooling Degree Days 0 0  
Month to date cooling degree days 0 0  
Year to date cooling degree days 0 0  
Moisture  
Dew Point 23 °F    
Average Humidity 63    
Maximum Humidity 88    
Minimum Humidity 38    
Precipitation  
Precipitation 0.00 in 0.08 in 0.61 in (2001)
Month to date precipitation 1.32 2.53  
Year to date precipitation 6.78 5.84  
Sea Level Pressure  
Sea Level Pressure 30.04 in    
Wind  
Wind Speed 9 mph (East)    
Max Wind Speed 18 mph    
Max Gust Speed 24 mph    
Visibility 8 miles    
Events      
T = Trace of Precipitation, MM = Missing Value Source: NWS Daily Summary

Daily Weather History Graph

Daily Weather History Graph

Search for Another Location

Airport or City:

Trip Planner

Search our weather history database for the weather conditions in past years. The results will help you decide how hot, cold, wet, or windy it might be!

Date:

Astronomy

Feb. 25, 2013 Rise Set
Actual Time 7:24 AM EST 6:35 PM EST
Civil Twilight 6:57 AM EST 7:01 PM EST
Nautical Twilight 6:26 AM EST 7:33 PM EST
Astronomical Twilight 5:55 AM EST 8:04 PM EST
Moon 6:47 PM EST (2/25) 6:54 AM EST (2/25)
Length of Visible Light 12h 04m
Length of Day
11h 10m
Full, 100% of the Moon is Illuminated
Feb 25
Full
Feb 25
Full
Mar 4
Last Quarter
Mar 11
New
Mar 19
First Quarter

Hourly Weather History & Observations

Time (EST) Temp. Windchill Dew Point Humidity Pressure Visibility Wind Dir Wind Speed Gust Speed Precip Events Conditions
12:16 AM 26.6 °F - 21.2 °F 80% 30.10 in 2.5 mi Calm Calm - N/A   Clear
12:29 AM 26.6 °F - 21.2 °F 80% 30.10 in 3.0 mi Calm Calm - N/A   Haze
12:53 AM 25.0 °F - 21.0 °F 85% 30.12 in 5.0 mi Calm Calm - N/A   Clear
1:53 AM 25.0 °F - 21.0 °F 85% 30.12 in 5.0 mi Calm Calm - N/A   Clear
2:53 AM 25.0 °F - 21.0 °F 85% 30.10 in 7.0 mi Calm Calm - N/A   Clear
3:53 AM 25.0 °F - 21.0 °F 85% 30.12 in 7.0 mi Calm Calm - N/A   Clear
4:53 AM 25.0 °F - 21.0 °F 85% 30.12 in 6.0 mi Calm Calm - N/A   Clear
5:53 AM 27.0 °F 23.0 °F 21.0 °F 78% 30.14 in 9.0 mi ESE 3.5 mph - N/A   Clear
6:53 AM 27.0 °F 20.5 °F 21.0 °F 78% 30.13 in 9.0 mi East 5.8 mph - N/A   Clear
7:53 AM 28.9 °F 19.8 °F 21.9 °F 75% 30.11 in 9.0 mi East 10.4 mph - N/A   Clear
8:53 AM 30.9 °F 22.8 °F 21.9 °F 69% 30.13 in 10.0 mi ESE 9.2 mph - N/A   Clear
9:53 AM 33.1 °F 22.6 °F 21.9 °F 64% 30.13 in 10.0 mi ESE 16.1 mph - N/A   Clear
10:53 AM 37.0 °F 28.1 °F 23.0 °F 57% 30.12 in 10.0 mi ESE 15.0 mph - N/A   Clear
11:53 AM 39.9 °F 31.4 °F 23.0 °F 51% 30.09 in 10.0 mi ESE 16.1 mph - N/A   Clear
12:53 PM 43.0 °F 36.4 °F 23.0 °F 45% 30.06 in 10.0 mi East 12.7 mph - N/A   Clear
1:53 PM 45.0 °F 40.1 °F 23.0 °F 42% 30.03 in 10.0 mi ENE 9.2 mph 19.6 mph N/A   Clear
2:53 PM 46.9 °F - 24.1 °F 41% 29.98 in 10.0 mi East 13.8 mph 18.4 mph N/A   Clear
3:53 PM 46.0 °F 41.4 °F 23.0 °F 40% 29.97 in 10.0 mi East 9.2 mph 17.3 mph N/A   Clear
4:53 PM 46.9 °F - 26.1 °F 44% 29.95 in 10.0 mi ENE 10.4 mph - N/A   Clear
5:53 PM 44.1 °F 38.1 °F 25.0 °F 47% 29.95 in 10.0 mi East 11.5 mph - N/A   Clear
6:53 PM 42.1 °F 35.2 °F 24.1 °F 49% 29.90 in 10.0 mi ENE 12.7 mph - N/A   Clear
7:53 PM 39.9 °F 32.5 °F 24.1 °F 53% 29.88 in 10.0 mi East 12.7 mph 21.9 mph N/A   Clear
8:53 PM 39.9 °F 32.5 °F 24.1 °F 53% 29.92 in 10.0 mi East 12.7 mph - N/A   Clear
10:53 PM 39.0 °F 30.3 °F 25.0 °F 57% 29.86 in 10.0 mi East 16.1 mph 20.7 mph N/A   Overcast
11:53 PM 39.0 °F 30.6 °F 24.1 °F 55% 29.81 in 10.0 mi East 15.0 mph - N/A   Overcast